This demonstration page uses our WeatherBlox Daily Observations layout. Learn more.

Left ArrowRight Arrow

Hourly Observations for September 26, 2021

Temp ( °F °C ) Dew Point ( °F °C ) Humidity (%) Winds ( mph kmh ) Pressure ( in mb ) Visibility ( mi km ) Precip ( " mm )
12:15 am 00:15 Clear 52 11 52 11 100 100 N N/A 30.09 1019 10 16 N/A
12:35 am 00:35 Clear 52 11 52 11 100 100 N N/A 30.08 1019 10 16 N/A
12:55 am 00:55 Clear 52 11 50 10 94 94 SSW 3 6 30.09 1019 10 16 N/A
1:15 am 01:15 Clear 52 11 50 10 94 94 N N/A 30.08 1019 10 16 N/A
1:35 am 01:35 Clear 50 10 50 10 100 100 SW 3 6 30.08 1019 10 16 N/A
1:55 am 01:55 Clear 48 9 48 9 100 100 N N/A 30.08 1019 10 16 N/A
2:15 am 02:15 Clear 50 10 50 10 100 100 SSW 3 6 30.08 1019 10 16 N/A
2:35 am 02:35 Clear 50 10 50 10 100 100 S 3 6 30.08 1019 10 16 N/A
2:55 am 02:55 Clear 46 8 46 8 100 100 SSW 3 6 30.09 1019 10 16 N/A
3:15 am 03:15 Clear 48 9 48 9 100 100 N N/A 30.08 1019 10 16 N/A
3:35 am 03:35 Clear 48 9 48 9 100 100 S 3 6 30.08 1019 10 16 N/A
3:55 am 03:55 Clear 48 9 48 9 100 100 S 5 7 30.08 1019 10 16 N/A
4:15 am 04:15 Clear 48 9 48 9 100 100 N N/A 30.08 1019 10 16 N/A
4:35 am 04:35 Clear 48 9 48 9 100 100 N N/A 30.08 1019 10 16 N/A
4:55 am 04:55 Clear 48 9 48 9 100 100 N N/A 30.09 1019 10 16 N/A
5:15 am 05:15 Clear 46 8 46 8 100 100 N N/A 30.10 1019 10 16 N/A
5:35 am 05:35 Clear 46 8 46 8 100 100 N N/A 30.10 1019 10 16 N/A
5:55 am 05:55 Clear 46 8 46 8 100 100 N N/A 30.10 1019 10 16 N/A
6:15 am 06:15 Clear 46 8 46 8 100 100 S 3 6 30.10 1019 10 16 N/A
6:35 am 06:35 Clear 46 8 46 8 100 100 S 3 6 30.10 1019 10 16 N/A
6:55 am 06:55 Clear 46 8 46 8 100 100 S 3 6 30.10 1019 10 16 N/A
7:15 am 07:15 Clear 46 8 46 8 100 100 S 3 6 30.11 1020 10 16 N/A
7:35 am 07:35 Clear 46 8 46 8 100 100 S 3 6 30.11 1020 10 16 N/A
7:55 am 07:55 Sunny 48 9 46 8 94 94 N N/A 30.10 1019 10 16 N/A
8:15 am 08:15 Sunny 48 9 46 8 94 94 N N/A 30.10 1019 10 16 N/A
8:35 am 08:35 Sunny 50 10 48 9 94 94 S 3 6 30.10 1019 10 16 N/A
8:55 am 08:55 Sunny 52 11 50 10 94 94 SSW 3 6 30.10 1019 10 16 N/A
9:15 am 09:15 Sunny 55 13 50 10 82 82 SSW 3 6 30.09 1019 10 16 N/A
9:35 am 09:35 Sunny 57 14 50 10 77 77 SSW 5 7 30.09 1019 10 16 N/A
9:55 am 09:55 Sunny 59 15 48 9 68 68 SSW 7 11 30.09 1019 10 16 N/A
10:15 am 10:15 Sunny 61 16 48 9 63 63 SSW 8 13 30.10 1019 10 16 N/A
10:35 am 10:35 Sunny 64 18 48 9 56 56 SSW 8 13 30.09 1019 10 16 N/A
10:55 am 10:55 Sunny 66 19 46 8 49 49 SW 10 17 30.09 1019 10 16 N/A
11:15 am 11:15 Sunny 66 19 45 7 46 46 SW 10 17 30.09 1019 10 16 N/A
11:35 am 11:35 Sunny 68 20 45 7 43 43 SW 12 19 30.09 1019 10 16 N/A
11:55 am 11:55 Sunny 70 21 45 7 40 40 SSW 12 19 30.09 1019 10 16 N/A
12:15 pm 12:15 Sunny 70 21 45 7 40 40 WSW 14 22 30.09 1019 10 16 N/A
12:35 pm 12:35 Sunny 72 22 46 8 41 41 WSW 15 24 30.08 1019 10 16 N/A
12:55 pm 12:55 Sunny 72 22 46 8 41 41 SW 13 20 30.07 1018 10 16 N/A
1:15 pm 13:15 Sunny 72 22 48 9 44 44 SW 10 17 30.07 1018 10 16 N/A
1:35 pm 13:35 Sunny 73 23 48 9 41 41 SW 10 17 30.06 1018 10 16 N/A
1:55 pm 13:55 Sunny 73 23 48 9 41 41 SW 12 19 30.06 1018 10 16 N/A
2:15 pm 14:15 Sunny 73 23 48 9 41 41 SW 16 26 30.05 1018 10 16 N/A
2:35 pm 14:35 Sunny 73 23 48 9 41 41 SW 9 15 30.04 1017 10 16 N/A
2:55 pm 14:55 Sunny 73 23 48 9 41 41 SSW 10 17 30.04 1017 10 16 N/A
3:15 pm 15:15 Sunny 75 24 48 9 39 39 SW 14 22 30.03 1017 10 16 N/A
3:35 pm 15:35 Sunny 75 24 48 9 39 39 SSW 12 19 30.02 1016 10 16 N/A
3:55 pm 15:55 Sunny 75 24 48 9 39 39 SSW 13 20 30.01 1016 10 16 N/A
4:15 pm 16:15 Sunny 75 24 50 10 41 41 SSW 14 22 30.01 1016 10 16 N/A
4:35 pm 16:35 Sunny 75 24 50 10 41 41 SSW 14 22 30.01 1016 10 16 N/A
4:55 pm 16:55 Sunny 73 23 50 10 44 44 SSW 13 20 30.00 1016 10 16 N/A
5:15 pm 17:15 Sunny 73 23 50 10 44 44 SSW 12 19 30.00 1016 10 16 N/A
5:35 pm 17:35 Sunny 72 22 50 10 47 47 SSW 13 20 30.00 1016 10 16 N/A
5:55 pm 17:55 Sunny 73 23 52 11 47 47 SSW 12 19 29.99 1016 10 16 N/A
6:15 pm 18:15 Sunny 73 23 52 11 47 47 S 14 22 29.99 1016 10 16 N/A
6:35 pm 18:35 Sunny 73 23 52 11 47 47 SSW 13 20 29.99 1016 10 16 N/A
6:55 pm 18:55 Sunny 72 22 52 11 50 50 S 8 13 29.99 1016 10 16 N/A
7:15 pm 19:15 Sunny 70 21 52 11 53 53 S 9 15 30.00 1016 10 16 N/A
7:35 pm 19:35 Clear 68 20 52 11 56 56 S 7 11 29.99 1016 10 16 N/A
7:55 pm 19:55 Clear 66 19 52 11 60 60 S 7 11 29.99 1016 10 16 N/A
8:15 pm 20:15 Clear 64 18 54 12 68 68 S 8 13 29.99 1016 10 16 N/A
8:35 pm 20:35 Clear 64 18 54 12 68 68 S 7 11 29.99 1016 10 16 N/A
8:55 pm 20:55 Clear 64 18 54 12 68 68 S 8 13 29.99 1016 10 16 N/A
9:15 pm 21:15 Clear 63 17 54 12 73 73 S 7 11 30.00 1016 10 16 N/A
9:35 pm 21:35 Clear 63 17 54 12 73 73 S 8 13 30.00 1016 10 16 N/A
9:55 pm 21:55 Clear 63 17 54 12 73 73 S 8 13 30.00 1016 10 16 N/A
10:15 pm 22:15 Clear 63 17 54 12 73 73 S 9 15 30.00 1016 10 16 N/A
10:35 pm 22:35 Clear 63 17 52 11 68 68 S 10 17 29.99 1015 10 16 N/A
10:55 pm 22:55 Clear 63 17 52 11 68 68 S 8 13 29.99 1015 10 16 N/A
11:15 pm 23:15 Clear 61 16 52 11 72 72 S 10 17 29.99 1016 10 16 N/A
11:35 pm 23:35 Clear 61 16 52 11 72 72 S 9 15 29.99 1016 10 16 N/A
11:55 pm 23:55 Clear 61 16 52 11 72 72 S 8 13 29.98 1015 10 16 N/A

Powered by AerisWeather